GW4623 Weather Reports


time (UTC)temp
C
wind
direction
speed
KPH
gust
KPH
rain 1hr
cm
rain 24hr
cm
rain mn
cm
humidity
%
barometer
mb
20240723195018 21 269 0.0 3.2 0.00 0.00 0.00 83 1016.8
20240723194515 21 52 0.0 6.4 0.00 0.00 0.00 81 1016.8
20240723194014 21 101 1.6 6.4 0.00 0.00 0.00 80 1016.6
20240723193512 21 54 4.8 4.8 0.00 0.00 0.00 82 1016.7
20240723193011 21 100 3.2 3.2 0.00 0.00 0.00 85 1016.8
20240723192508 20 76 6.4 6.4 0.00 0.00 0.00 86 1017.0
20240723192008 20 54 1.6 4.8 0.00 0.00 0.00 84 1016.7
20240723191506 20 70 3.2 4.8 0.00 0.00 0.00 84 1016.9
20240723191006 20 52 3.2 6.4 0.00 0.00 0.00 84 1016.9
20240723190505 20 20 3.2 3.2 0.00 0.00 0.00 84 1016.8
20240723190005 20 150 1.6 1.6 0.00 0.00 0.00 85 1016.8
20240723185503 20 60 0.0 3.2 0.00 0.00 0.00 86 1017.0
20240723185000 20 75 1.6 4.8 0.00 0.00 0.00 86 1016.9
20240723184458 20 68 6.4 8.0 0.00 0.00 0.00 85 1016.9
20240723183956 20 70 3.2 4.8 0.00 0.00 0.00 84 1016.9
20240723183455 20 24 1.6 3.2 0.00 0.00 0.00 84 1016.9
20240723182955 20 89 0.0 1.6 0.00 0.00 0.00 85 1017.2
20240723182453 20 96 3.2 3.2 0.00 0.00 0.00 85 1017.2
20240723181951 20 86 4.8 6.4 0.00 0.00 0.00 84 1017.0
20240723181449 20 24 3.2 8.0 0.00 0.00 0.00 85 1017.0
20240723180946 20 19 0.0 3.2 0.00 0.00 0.00 86 1016.9
20240723180445 20 18 1.6 3.2 0.00 0.00 0.00 85 1017.1
20240723175944 20 89 0.0 3.2 0.00 0.00 0.00 87 1017.1
20240723175442 20 35 1.6 3.2 0.00 0.00 0.00 88 1017.1
20240723174940 20 217 0.0 1.6 0.00 0.00 0.00 89 1017.0
20240723174441 20 46 1.6 4.8 0.00 0.00 0.00 88 1017.0
20240723173940 19 323 0.0 3.2 0.00 0.00 0.00 88 1017.0
20240723173438 19 325 0.0 3.2 0.00 0.00 0.00 87 1017.2
20240723172936 19 56 0.0 1.6 0.00 0.00 0.00 87 1017.0
20240723172435 19 28 1.6 3.2 0.00 0.00 0.00 88 1017.0
20240723171935 19 35 1.6 1.6 0.00 0.00 0.00 90 1017.1
20240723171434 19 350 0.0 3.2 0.00 0.00 0.00 90 1017.2
20240723170932 19 166 0.0 1.6 0.00 0.00 0.00 90 1017.1
20240723170430 19 83 0.0 1.6 0.00 0.00 0.00 90 1017.0
20240723165928 19 54 1.6 6.4 0.00 0.00 0.00 88 1017.1
20240723165425 18 229 0.0 3.2 0.00 0.00 0.00 89 1017.1
20240723164924 18 82 0.0 4.8 0.00 0.00 0.00 89 1017.2
20240723164423 18 49 1.6 1.6 0.00 0.00 0.00 92 1017.1
20240723163921 18 49 4.8 4.8 0.00 0.00 0.00 91 1017.1
20240723163421 18 116 3.2 4.8 0.00 0.00 0.00 90 1017.2
20240723162918 18 92 1.6 8.0 0.00 0.00 0.00 89 1017.1
20240723162414 18 64 1.6 3.2 0.00 0.00 0.00 92 1017.1
20240723161913 18 98 0.0 1.6 0.00 0.00 0.00 91 1017.2
20240723161410 18 269 0.0 3.2 0.00 0.00 0.00 92 1017.2
20240723160908 18 60 0.0 3.2 0.00 0.00 0.00 91 1017.2
20240723160407 18 313 0.0 3.2 0.00 0.00 0.00 91 1017.2
20240723155906 18 288 0.0 1.6 0.00 0.00 0.00 90 1017.0
20240723155404 18 113 0.0 3.2 0.00 0.00 0.00 92 1017.1
20240723154903 18 85 3.2 3.2 0.00 0.00 0.00 90 1017.0
20240723154401 18 51 3.2 3.2 0.00 0.00 0.00 91 1017.1
20240723153858 18 48 0.0 1.6 0.00 0.00 0.00 92 1017.1
20240723153356 18 55 0.0 3.2 0.00 0.00 0.00 93 1017.0
20240723152853 17 89 0.0 3.2 0.00 0.00 0.00 92 1017.0
20240723152349 18 76 0.0 1.6 0.00 0.00 0.00 92 1017.1
20240723151849 18 49 0.0 3.2 0.00 0.00 0.00 92 1017.1
20240723151348 18 75 0.0 1.6 0.00 0.00 0.00 93 1017.0
20240723150848 18 50 0.0 1.6 0.00 0.00 0.00 93 1017.2
20240723150347 17 52 0.0 6.4 0.00 0.00 0.00 93 1017.2
20240723145845 17 89 0.0 3.2 0.00 0.00 0.00 93 1017.0
20240723145343 17 39 4.8 6.4 0.00 0.00 0.00 93 1016.7
20240723144843 17 73 3.2 6.4 0.00 0.00 0.00 93 1016.8
20240723144342 17 159 3.2 6.4 0.00 0.00 0.00 94 1016.6
20240723143838 17 50 1.6 6.4 0.00 0.00 0.00 95 1016.4
20240723143336 17 50 3.2 6.4 0.00 0.00 0.00 95 1016.3
20240723142836 17 85 6.4 16.1 0.00 0.00 0.00 95 1016.3
20240723142335 17 85 0.0 8.0 0.00 0.00 0.00 96 1016.5
20240723141834 17 47 0.0 4.8 0.00 0.00 0.00 96 1016.7
20240723141333 17 55 3.2 8.0 0.00 0.00 0.00 97 1016.7
20240723140830 17 68 3.2 3.2 0.00 0.00 0.00 98 1016.5
20240723140329 17 40 1.6 3.2 0.00 0.00 0.00 98 1016.7
20240723135828 16 59 1.6 3.2 0.00 0.00 0.00 99 1016.8
20240723135326 17 70 0.0 3.2 0.00 0.00 0.00 99 1016.9
20240723134826 16 86 1.6 3.2 0.00 0.00 0.00 99 1016.8
20240723134324 16 39 3.2 3.2 0.00 0.00 0.00 99 1016.9
20240723133823 16 51 3.2 3.2 0.00 0.00 0.00 99 1017.1
20240723133321 16 94 0.0 3.2 0.00 0.00 0.00 99 1017.0
20240723132820 16 65 3.2 3.2 0.00 0.00 0.00 99 1016.8
20240723132319 16 58 1.6 3.2 0.00 0.00 0.00 99 1017.0
20240723131819 16 93 1.6 3.2 0.00 0.00 0.00 99 1016.9
20240723131318 16 49 3.2 3.2 0.00 0.00 0.00 99 1016.6
20240723130813 17 48 0.0 3.2 0.00 0.00 0.00 99 1017.0
20240723130313 17 43 0.0 3.2 0.00 0.00 0.00 99 1016.7
20240723125812 17 58 0.0 3.2 0.00 0.00 0.00 99 1016.6
20240723125310 17 55 0.0 3.2 0.00 0.00 0.00 99 1016.7
20240723124810 17 27 3.2 4.8 0.00 0.00 0.00 99 1016.7
20240723124308 17 50 0.0 3.2 0.00 0.00 0.00 99 1016.5
20240723123805 17 80 1.6 4.8 0.00 0.00 0.00 99 1016.3
20240723123303 17 70 0.0 3.2 0.00 0.00 0.00 99 1016.1
20240723122800 17 58 1.6 3.2 0.00 0.00 0.00 99 1015.9
20240723122258 17 71 0.0 1.6 0.00 0.00 0.00 99 1016.0
20240723121758 17 65 0.0 1.6 0.00 0.00 0.00 99 1016.0
20240723121256 17 23 0.0 3.2 0.00 0.00 0.00 99 1015.9
20240723120752 17 76 0.0 1.6 0.00 0.00 0.00 99 1015.8
20240723120251 17 48 1.6 3.2 0.00 0.00 0.00 99 1015.6
20240723115749 17 75 3.2 3.2 0.00 0.00 0.00 99 1015.3
20240723115246 17 58 3.2 3.2 0.00 0.00 0.00 99 1015.8
20240723114745 16 66 0.0 3.2 0.00 0.00 0.00 99 1015.9
20240723114244 17 115 0.0 3.2 0.00 0.00 0.00 99 1015.9
20240723113739 16 77 0.0 3.2 0.00 0.00 0.00 99 1015.8
20240723113239 16 84 1.6 1.6 0.00 0.00 0.00 99 1015.7
20240723112739 17 122 0.0 3.2 0.00 0.00 0.00 99 1015.6
20240723112238 17 85 1.6 3.2 0.00 0.00 0.00 99 1015.7
20240723111737 17 32 1.6 3.2 0.00 0.00 0.00 99 1015.7
20240723111236 17 84 1.6 3.2 0.00 0.00 0.00 99 1015.8
20240723110733 17 72 3.2 3.2 0.00 0.00 0.00 99 1015.8
20240723110231 17 69 1.6 3.2 0.00 0.00 0.00 99 1015.6
20240723105729 17 85 1.6 4.8 0.00 0.00 0.00 99 1015.4
20240723105228 17 78 3.2 6.4 0.00 0.00 0.00 99 1015.4
20240723104728 17 88 4.8 4.8 0.00 0.00 0.00 99 1015.4
20240723104225 17 83 1.6 3.2 0.00 0.00 0.00 99 1015.5
20240723103723 17 89 4.8 6.4 0.00 0.00 0.00 99 1015.5
20240723103221 17 39 0.0 4.8 0.00 0.00 0.00 99 1015.5
20240723102719 17 102 0.0 3.2 0.00 0.00 0.00 99 1015.4
20240723102218 17 69 0.0 1.6 0.00 0.00 0.00 99 1015.5
20240723101715 17 89 0.0 1.6 0.00 0.00 0.00 99 1015.4
20240723101213 17 89 0.0 3.2 0.00 0.00 0.00 99 1015.7
20240723100711 17 69 1.6 3.2 0.00 0.00 0.00 99 1015.5
20240723100209 17 87 0.0 3.2 0.00 0.00 0.00 99 1015.7
20240723095707 17 50 0.0 1.6 0.00 0.00 0.00 99 1015.5
20240723095207 17 76 0.0 1.6 0.00 0.00 0.00 99 1015.5
20240723094706 17 69 0.0 1.6 0.00 0.00 0.00 99 1015.6
20240723094204 17 63 0.0 3.2 0.00 0.00 0.00 99 1015.5
20240723093703 17 72 3.2 6.4 0.00 0.00 0.00 99 1015.5
20240723093201 17 73 1.6 1.6 0.00 0.00 0.00 99 1015.5
20240723092659 17 68 1.6 3.2 0.00 0.00 0.00 99 1015.2
20240723092158 17 60 0.0 1.6 0.00 0.00 0.00 99 1015.2
20240723091657 17 79 0.0 1.6 0.00 0.00 0.00 99 1015.1
20240723091157 18 110 0.0 1.6 0.00 0.00 0.00 99 1015.1
20240723090654 18 73 0.0 1.6 0.00 0.00 0.00 99 1015.3
20240723090153 18 102 0.0 0.0 0.00 0.00 0.00 99 1015.4
20240723085650 18 100 0.0 1.6 0.00 0.00 0.00 99 1015.4
20240723085150 18 113 0.0 1.6 0.00 0.00 0.00 99 1015.3
20240723084649 18 89 0.0 1.6 0.00 0.00 0.00 99 1015.2
20240723084147 18 89 0.0 1.6 0.00 0.00 0.00 99 1015.3
20240723083647 18 214 0.0 0.0 0.00 0.00 0.00 99 1015.1
20240723083146 18 89 0.0 1.6 0.00 0.00 0.00 99 1015.0
20240723082643 18 76 1.6 1.6 0.00 0.00 0.00 99 1015.0
20240723082141 18 55 0.0 1.6 0.00 0.00 0.00 99 1015.1
20240723081640 18 75 0.0 1.6 0.00 0.00 0.00 99 1014.8
20240723081139 18 55 0.0 1.6 0.00 0.00 0.00 99 1014.7
20240723080636 18 89 0.0 1.6 0.00 0.00 0.00 99 1014.7
20240723080135 18 79 0.0 3.2 0.00 0.00 0.00 99 1015.0
20240723075630 18 124 0.0 0.0 0.00 0.00 0.00 99 1015.0
20240723075128 18 53 0.0 1.6 0.00 0.00 0.00 99 1014.8
20240723074628 18 89 0.0 3.2 0.00 0.00 0.00 99 1014.9
20240723074126 18 124 0.0 0.0 0.00 0.00 0.00 99 1015.1
20240723073625 18 147 0.0 0.0 0.00 0.00 0.00 99 1015.0
20240723073124 18 89 0.0 0.0 0.00 0.00 0.00 99 1014.8
20240723072622 18 74 0.0 1.6 0.00 0.00 0.00 99 1015.0
20240723072121 18 70 0.0 3.2 0.00 0.00 0.00 99 1014.7
20240723071621 18 89 0.0 0.0 0.00 0.00 0.00 99 1014.9
20240723071121 18 37 0.0 1.6 0.00 0.00 0.00 99 1014.8
20240723070616 18 59 0.0 3.2 0.00 0.00 0.00 99 1014.8
20240723070114 18 49 3.2 3.2 0.00 0.00 0.00 99 1014.9
20240723065606 18 83 0.0 4.8 0.00 0.00 0.00 99 1014.8
20240723065039 18 89 0.0 3.2 0.00 0.00 0.00 99 1014.9
20240723064538 18 50 0.0 0.0 0.00 0.00 0.00 99 1015.1
20240723064036 18 89 0.0 1.6 0.00 0.00 0.00 99 1015.1
20240723063533 18 119 1.6 3.2 0.00 0.00 0.00 99 1015.2
20240723063031 18 99 0.0 1.6 0.00 0.00 0.00 99 1015.0
20240723062530 18 66 0.0 1.6 0.00 0.00 0.00 99 1014.8
20240723062028 18 95 0.0 1.6 0.00 0.00 0.00 99 1014.7
20240723061526 18 104 0.0 1.6 0.00 0.00 0.00 99 1014.8
20240723061024 18 89 0.0 1.6 0.00 0.00 0.00 99 1014.9
20240723060524 18 124 0.0 0.0 0.00 0.00 0.00 99 1014.9
20240723060020 18 89 0.0 1.6 0.00 0.00 0.00 99 1014.6
20240723055514 18 89 0.0 1.6 0.00 0.00 0.00 99 1014.9
20240723055012 18 50 0.0 0.0 0.00 0.00 0.00 99 1014.8
20240723054509 18 89 0.0 1.6 0.00 0.00 0.00 99 1014.7
20240723054008 18 108 0.0 1.6 0.00 0.00 0.00 99 1014.6
20240723053505 18 89 0.0 3.2 0.00 0.00 0.00 99 1015.0
20240723053002 18 89 0.0 1.6 0.00 0.00 0.00 99 1014.8
20240723052501 17 99 0.0 1.6 0.00 0.00 0.00 99 1014.8
20240723051959 18 107 0.0 1.6 0.00 0.00 0.00 99 1014.9
20240723051437 18 56 0.0 1.6 0.00 0.00 0.00 99 1014.8
20240723050934 18 74 0.0 1.6 0.00 0.00 0.00 99 1014.7
20240723050434 18 77 0.0 1.6 0.00 0.00 0.00 99 1014.6
20240723045932 18 89 0.0 1.6 0.00 0.94 0.94 99 1014.8
20240723045430 18 89 0.0 1.6 0.00 0.94 0.94 99 1014.7
20240723044928 18 77 0.0 1.6 0.00 0.94 0.94 99 1014.8
20240723044428 18 86 0.0 1.6 0.00 0.94 0.94 99 1014.9
20240723043926 18 104 1.6 1.6 0.00 0.94 0.94 99 1014.7
20240723043424 18 89 0.0 1.6 0.00 0.94 0.94 99 1014.7
20240723042923 18 89 0.0 1.6 0.00 0.94 0.94 99 1014.8
20240723042420 18 110 0.0 1.6 0.00 0.94 0.94 99 1014.8
20240723041918 18 94 0.0 1.6 0.00 0.94 0.94 99 1014.8
20240723041417 18 89 0.0 1.6 0.00 0.94 0.94 99 1014.8
20240723040916 18 89 0.0 0.0 0.00 0.94 0.94 99 1014.7
20240723040414 18 129 0.0 0.0 0.00 0.94 0.94 99 1014.6
20240723035912 18 119 0.0 0.0 0.00 0.94 0.94 99 1014.6
20240723035412 18 124 0.0 0.0 0.00 0.94 0.94 99 1014.7
20240723034911 18 89 0.0 0.0 0.00 0.94 0.94 99 1014.7
20240723034408 18 89 0.0 0.0 0.00 0.94 0.94 99 1014.8
20240723033907 18 89 0.0 0.0 0.00 0.94 0.94 99 1014.3
20240723033406 18 129 0.0 0.0 0.00 0.94 0.94 99 1014.6
20240723032905 18 129 0.0 0.0 0.00 0.94 0.94 99 1014.4
20240723032403 18 142 0.0 0.0 0.00 0.94 0.94 99 1014.4
20240723031901 18 76 0.0 0.0 0.00 0.94 0.94 99 1014.3
20240723031400 18 89 0.0 1.6 0.00 0.94 0.94 99 1014.4
20240723030900 18 78 0.0 1.6 0.00 0.94 0.94 99 1014.4
20240723030356 18 89 0.0 0.0 0.00 0.94 0.94 99 1014.3
20240723025855 18 101 0.0 0.0 0.00 0.94 0.94 99 1014.3
20240723025355 18 110 0.0 1.6 0.00 0.94 0.94 99 1014.1
20240723024854 18 77 0.0 1.6 0.00 0.94 0.94 99 1014.1
20240723024352 18 89 0.0 1.6 0.00 0.94 0.94 99 1014.3
20240723023850 18 63 0.0 1.6 0.00 0.94 0.94 99 1014.4
20240723023350 18 89 0.0 1.6 0.00 0.94 0.94 99 1014.4
20240723022848 18 89 0.0 0.0 0.00 0.94 0.94 99 1014.3
20240723022347 18 89 0.0 1.6 0.00 0.94 0.94 99 1014.6
20240723021843 18 89 0.0 1.6 0.00 0.94 0.94 99 1014.3
20240723021341 18 89 0.0 1.6 0.00 0.94 0.94 99 1014.3
20240723020839 18 86 1.6 1.6 0.00 0.94 0.94 99 1014.4
20240723020338 18 84 0.0 1.6 0.00 0.94 0.94 99 1014.6
20240723015837 18 55 0.0 1.6 0.00 0.94 0.94 98 1014.3
20240723015335 18 89 0.0 1.6 0.00 0.94 0.94 98 1014.0
20240723014835 18 95 0.0 1.6 0.00 0.94 0.94 98 1014.1
20240723014332 18 129 0.0 1.6 0.00 0.94 0.94 98 1014.1
20240723013830 18 77 0.0 0.0 0.00 0.94 0.94 98 1013.9
20240723013329 18 106 0.0 3.2 0.00 0.94 0.94 98 1013.8
20240723012829 18 85 0.0 1.6 0.00 0.94 0.94 98 1013.9
20240723012327 18 88 0.0 1.6 0.00 0.94 0.94 98 1013.9
20240723011823 18 117 0.0 1.6 0.00 0.94 0.94 98 1014.0
20240723011321 18 76 0.0 0.0 0.00 0.94 0.94 98 1014.0
20240723010820 18 89 0.0 1.6 0.00 0.94 0.94 98 1014.1
20240723010319 18 110 0.0 0.0 0.00 0.94 0.94 98 1014.1
20240723005816 18 89 0.0 0.0 0.00 0.94 0.94 98 1014.2
20240723005315 18 162 3.2 3.2 0.00 0.94 0.94 98 1014.2
20240723004813 18 220 1.6 3.2 0.00 0.94 0.94 98 1014.1
20240723004310 18 217 0.0 3.2 0.00 0.94 0.94 98 1014.1
20240723003808 18 89 0.0 1.6 0.00 0.94 0.94 98 1013.8
20240723003306 18 132 0.0 3.2 0.00 0.94 0.94 98 1014.1
20240723002800 18 109 0.0 1.6 0.00 0.94 0.94 98 1014.0
20240723002259 18 53 1.6 1.6 0.00 0.94 0.94 98 1014.0
20240723001757 18 134 1.6 3.2 0.00 0.94 0.94 98 1014.0
20240723001256 18 147 0.0 1.6 0.00 0.94 0.94 98 1014.3
20240723000754 18 68 3.2 3.2 0.00 0.94 0.94 98 1014.4
20240723000255 18 245 3.2 3.2 0.00 0.94 0.94 98 1014.3
20240722235751 18 33 1.6 4.8 0.00 0.94 0.94 98 1013.9
20240722235250 18 52 3.2 3.2 0.00 0.94 0.94 98 1014.0
20240722234748 18 37 3.2 3.2 0.00 0.94 0.94 98 1013.9
20240722234247 18 63 3.2 3.2 0.00 0.94 0.94 98 1013.8
20240722233745 18 96 1.6 3.2 0.00 0.94 0.94 98 1013.7
20240722233245 18 142 0.0 1.6 0.00 0.94 0.94 97 1013.8
20240722232744 18 103 0.0 1.6 0.00 0.94 0.94 97 1013.6
20240722232243 18 40 0.0 3.2 0.00 0.94 0.94 97 1013.7
20240722231741 18 241 0.0 3.2 0.05 0.94 0.94 97 1013.6
20240722231239 19 140 0.0 3.2 0.05 0.94 0.94 97 1014.2
20240722230734 19 45 3.2 4.8 0.18 0.94 0.94 96 1014.6
20240722230233 18 107 1.6 3.2 0.46 0.94 0.94 96 1014.6
20240722225731 18 56 0.0 3.2 0.66 0.89 0.89 96 1014.2
20240722225229 18 87 1.6 3.2 0.89 0.84 0.84 95 1014.6
20240722224728 18 230 3.2 3.2 3.00 0.74 0.74 93 1015.0
20240722224228 18 69 1.6 8.0 3.94 0.66 0.66 89 1015.4
20240722223727 21 117 3.2 8.0 0.94 0.15 0.15 88 1015.3
20240722223227 22 277 3.2 6.4 0.00 0.00 0.00 79 1013.8
20240722222726 23 324 3.2 9.7 0.00 0.00 0.00 76 1013.3
20240722222225 26 75 4.8 8.0 0.00 0.00 0.00 68 1013.6
20240722221723 26 177 0.0 8.0 0.00 0.00 0.00 66 1012.8
20240722221222 26 84 3.2 4.8 0.00 0.00 0.00 67 1012.7
20240722220722 26 266 3.2 3.2 0.00 0.00 0.00 65 1012.9
20240722220221 26 58 1.6 6.4 0.00 0.00 0.00 64 1013.0
20240722215718 27 25 0.0 4.8 0.00 0.00 0.00 64 1012.8
20240722215217 27 178 1.6 4.8 0.00 0.00 0.00 63 1012.8
20240722214717 27 206 1.6 8.0 0.00 0.00 0.00 63 1013.0
20240722214216 27 99 4.8 4.8 0.00 0.00 0.00 63 1012.8
20240722213714 27 163 4.8 6.4 0.00 0.00 0.00 62 1012.9
20240722213213 27 254 9.7 17.7 0.00 0.00 0.00 62 1013.2
20240722212711 27 230 3.2 4.8 0.00 0.00 0.00 62 1013.2
20240722212210 27 198 1.6 4.8 0.00 0.00 0.00 65 1013.4
20240722211708 27 176 1.6 6.4 0.00 0.00 0.00 62 1013.4
20240722211206 27 301 1.6 6.4 0.00 0.00 0.00 62 1013.5
20240722210705 28 221 3.2 4.8 0.00 0.00 0.00 60 1013.5
20240722210204 27 310 0.0 6.4 0.00 0.00 0.00 59 1013.2
20240722205702 27 256 1.6 4.8 0.00 0.00 0.00 57 1013.7
20240722205158 28 227 3.2 9.7 0.00 0.00 0.00 57 1013.9
20240722204658 28 133 3.2 6.4 0.00 0.00 0.00 56 1013.7
20240722204156 28 250 3.2 8.0 0.00 0.00 0.00 56 1013.7
20240722203656 28 318 1.6 6.4 0.00 0.00 0.00 55 1014.1
20240722203154 29 206 1.6 4.8 0.00 0.00 0.00 56 1014.1
20240722202648 29 241 3.2 4.8 0.00 0.00 0.00 52 1014.1
20240722202146 28 216 1.6 4.8 0.00 0.00 0.00 56 1013.9
20240722201645 28 14 0.0 6.4 0.00 0.00 0.00 54 1013.9
20240722201144 29 284 3.2 4.8 0.00 0.00 0.00 54 1014.1
20240722200642 29 240 1.6 9.7 0.00 0.00 0.00 54 1014.2
20240722200141 29 257 3.2 6.4 0.00 0.00 0.00 53 1014.1
20240722195639 29 251 0.0 4.8 0.00 0.00 0.00 55 1014.0